Date String (YYYY-MM-DD hh:mm:ss) UTC,Instrument flags,Ambient pressure (hPa),Sample flow (lpm),Bypass flow (lpm),Sample temperature (°C),Ambient temperature (°C),ASC tube jacket temperature (°C),LED temperature (°C),Box temperature (°C),Sample RH (%),Span deviation,Mass concentration (μg/m³),Mass concentration (μg/m³),Mass concentration (μg/m³)
DateTimeUTC,F1_M11,P_M11,Q1_M11,Q2_M11,T1_M11,T2_M11,T3_M11,T4_M11,T5_M11,U1_M11,ZSPAN_M11,X0_M11,X2_M11,X1_M11
2022-09-29 14:00:00,,0830.7,4.99,0.00,30.8,29.5,00.0,39.5,32.6,14.7,0000.0,0009.87,0003.94,0003.44
2022-09-29 14:01:00,,0830.8,5.01,0.00,30.8,29.5,00.0,39.5,32.6,14.7,0000.0,0009.49,0003.92,0003.42
2022-09-29 14:02:00,,0830.7,4.99,0.00,30.8,29.5,00.0,39.5,32.6,14.7,0000.0,0009.19,0003.92,0003.41
2022-09-29 14:03:00,,0830.8,5.00,0.00,30.8,29.6,00.0,39.5,32.6,14.8,0000.0,0009.18,0003.91,0003.39
2022-09-29 14:04:00,,0830.9,5.00,0.00,30.8,29.6,00.0,39.5,32.6,14.7,0000.0,0009.83,0003.87,0003.37
2022-09-29 14:05:00,,0830.9,4.99,0.00,30.8,29.6,00.0,39.5,32.6,14.7,0000.0,0009.36,0003.81,0003.35
2022-09-29 14:06:00,,0830.9,5.02,0.00,30.8,29.6,00.0,39.5,32.7,14.7,0000.0,0009.06,0003.78,0003.33
2022-09-29 14:07:00,,0830.9,5.00,0.00,30.9,29.6,00.0,39.5,32.7,14.7,0000.0,0009.04,0003.75,0003.32
2022-09-29 14:08:00,,0830.9,5.00,0.00,30.9,29.6,00.0,39.6,32.7,14.6,0000.0,0008.71,0003.73,0003.33
2022-09-29 14:09:00,,0830.9,4.99,0.00,30.9,29.7,00.0,39.6,32.7,14.6,0000.0,0007.77,0003.72,0003.33
2022-09-29 14:10:00,,0830.9,5.00,0.00,30.9,29.7,00.0,39.6,32.7,14.6,0000.0,0007.58,0003.71,0003.33
2022-09-29 14:11:00,,0830.9,5.01,0.00,30.9,29.5,00.0,39.6,32.7,14.6,0000.0,0007.36,0003.72,0003.34
2022-09-29 14:12:00,,0830.8,5.00,0.00,30.9,28.3,00.0,39.6,32.7,14.5,0000.0,0007.28,0003.71,0003.34
2022-09-29 14:13:00,,0830.9,4.99,0.00,30.8,26.9,00.0,39.5,32.5,14.5,0000.0,0007.15,0003.67,0003.33
2022-09-29 14:14:00,,0830.8,4.99,0.00,30.8,26.7,00.0,39.4,32.4,14.7,0000.0,0007.19,0003.67,0003.33
2022-09-29 14:15:00,,0830.7,5.00,0.00,30.7,27.0,00.0,39.4,32.2,15.2,0000.0,0006.61,0003.70,0003.33
2022-09-29 14:16:00,,0830.7,5.00,0.00,30.6,27.3,00.0,39.3,32.1,14.8,0000.0,0008.17,0003.72,0003.34
2022-09-29 14:17:00,,0830.7,5.00,0.00,30.5,27.7,00.0,39.3,32.1,14.8,0000.0,0008.28,0003.75,0003.34
2022-09-29 14:18:00,,0830.8,5.00,0.00,30.4,28.0,00.0,39.3,32.0,14.9,0000.0,0008.58,0003.75,0003.34
2022-09-29 14:19:00,,0830.8,4.99,0.00,30.4,28.2,00.0,39.2,32.1,15.0,0000.0,0008.62,0003.72,0003.33
2022-09-29 14:20:00,,0830.8,4.99,0.00,30.4,28.4,00.0,39.2,32.1,15.0,0000.0,0008.59,0003.70,0003.32
2022-09-29 14:21:00,,0830.8,5.01,0.00,30.4,28.6,00.0,39.2,32.1,15.0,0000.0,0008.78,0003.73,0003.31
2022-09-29 14:22:00,,0830.7,4.99,0.00,30.4,28.7,00.0,39.2,32.1,14.9,0000.0,0008.81,0003.74,0003.30
2022-09-29 14:23:00,,0830.8,5.01,0.00,30.4,28.8,00.0,39.2,32.1,14.9,0000.0,0008.87,0003.74,0003.29
2022-09-29 14:24:00,,0830.8,4.99,0.00,30.4,28.9,00.0,39.2,32.1,15.0,0000.0,0008.94,0003.78,0003.30
2022-09-29 14:25:00,,0830.8,5.01,0.00,30.4,28.9,00.0,39.2,32.2,15.9,0000.0,0008.86,0003.75,0003.29
2022-09-29 14:26:00,,0830.8,5.00,0.00,30.4,29.0,00.0,39.2,32.2,17.2,0000.0,0008.80,0003.72,0003.28
2022-09-29 14:27:00,,0830.8,4.99,0.00,30.4,29.0,00.0,39.2,32.2,17.7,0000.0,0008.31,0003.71,0003.29
2022-09-29 14:28:00,,0830.7,5.01,0.00,30.4,29.1,00.0,39.2,32.2,17.8,0000.0,0008.78,0003.76,0003.30
2022-09-29 14:29:00,,0830.7,5.00,0.00,30.4,29.2,00.0,39.2,32.2,18.3,0000.0,0008.64,0003.78,0003.32
2022-09-29 14:30:00,,0830.7,5.01,0.00,30.5,29.2,00.0,39.2,32.3,18.6,0000.0,0010.26,0003.87,0003.36
2022-09-29 14:31:00,,0830.7,4.99,0.00,30.5,29.2,00.0,39.2,32.3,17.9,0000.0,0010.62,0003.94,0003.39
2022-09-29 14:32:00,,0830.7,4.99,0.00,30.5,29.3,00.0,39.2,32.3,17.8,0000.0,0010.88,0003.96,0003.42
2022-09-29 14:33:00,,0830.8,5.02,0.00,30.5,29.3,00.0,39.2,32.3,18.2,0000.0,0011.24,0003.98,0003.44
2022-09-29 14:34:00,,0830.8,4.99,0.00,30.6,29.4,00.0,39.2,32.4,17.4,0000.0,0011.74,0003.96,0003.46
2022-09-29 14:35:00,,0830.8,5.01,0.00,30.6,29.4,00.0,39.3,32.4,16.6,0000.0,0011.94,0003.96,0003.48
2022-09-29 14:36:00,,0830.8,4.99,0.00,30.6,29.4,00.0,39.3,32.4,18.2,0000.0,0012.66,0004.03,0003.50
2022-09-29 14:37:00,,0830.8,5.01,0.00,30.6,29.4,00.0,39.3,32.4,19.3,0000.0,0012.75,0004.10,0003.53
2022-09-29 14:38:00,,0830.8,5.00,0.00,30.6,29.5,00.0,39.3,32.4,18.4,0000.0,0012.14,0004.11,0003.55
2022-09-29 14:39:00,,0830.7,5.00,0.00,30.6,29.5,00.0,39.3,32.5,17.6,0000.0,0011.74,0004.06,0003.56
2022-09-29 14:40:00,,0830.7,5.00,0.00,30.7,29.5,00.0,39.3,32.5,18.6,0000.0,0012.03,0004.07,0003.56
2022-09-29 14:41:00,,0830.8,4.99,0.00,30.7,29.5,00.0,39.4,32.5,18.9,0000.0,0010.92,0004.03,0003.56
2022-09-29 14:42:00,,0830.8,5.00,0.00,30.7,29.5,00.0,39.4,32.5,18.4,0000.0,0010.97,0003.99,0003.56
2022-09-29 14:43:00,,0830.9,4.99,0.00,30.7,29.6,00.0,39.4,32.6,17.8,0000.0,0010.86,0003.99,0003.56
2022-09-29 14:44:00,,0830.8,5.01,0.00,30.8,29.6,00.0,39.4,32.6,18.0,0000.0,0010.34,0003.96,0003.56
2022-09-29 14:45:00,,0830.8,5.00,0.00,30.8,29.6,00.0,39.4,32.6,19.3,0000.0,0010.08,0004.00,0003.57
2022-09-29 14:46:00,,0830.8,5.00,0.00,30.8,28.7,00.0,39.4,32.6,19.4,0000.0,0010.32,0004.04,0003.58
2022-09-29 14:47:00,,0830.7,5.00,0.00,30.7,27.4,00.0,39.4,32.4,18.9,0000.0,0009.80,0004.06,0003.59
2022-09-29 14:48:00,,0830.8,5.00,0.00,30.7,27.2,00.0,39.4,32.4,17.9,0000.0,0009.66,0004.04,0003.59
2022-09-29 14:49:00,,0830.8,5.00,0.00,30.6,27.5,00.0,39.3,32.3,18.0,0000.0,0009.70,0004.06,0003.60
2022-09-29 14:50:00,,0830.7,5.01,0.00,30.5,27.8,00.0,39.3,32.2,17.3,0000.0,0009.51,0004.08,0003.59
2022-09-29 14:51:00,,0830.7,5.00,0.00,30.5,28.1,00.0,39.3,32.2,17.5,0000.0,0009.42,0004.07,0003.59
2022-09-29 14:52:00,,0830.8,4.99,0.00,30.5,28.4,00.0,39.2,32.2,18.6,0000.0,0009.58,0004.09,0003.59
2022-09-29 14:53:00,,0830.8,4.99,0.00,30.5,28.6,00.0,39.2,32.2,18.4,0000.0,0009.14,0004.11,0003.58
2022-09-29 14:54:00,,0830.8,5.01,0.00,30.5,28.8,00.0,39.2,32.2,18.6,0000.0,0008.86,0004.11,0003.58
2022-09-29 14:55:00,,0830.8,5.00,0.00,30.5,28.9,00.0,39.2,32.2,18.8,0000.0,0008.93,0004.12,0003.58
2022-09-29 14:56:00,,0830.9,5.00,0.00,30.5,29.0,00.0,39.2,32.3,19.1,0000.0,0008.87,0004.14,0003.57
2022-09-29 14:57:00,,0830.9,5.01,0.00,30.5,29.1,00.0,39.2,32.3,19.0,0000.0,0008.62,0004.12,0003.57
2022-09-29 14:58:00,,0830.9,4.98,0.00,30.5,29.2,00.0,39.2,32.3,18.2,0000.0,0008.51,0004.09,0003.55
2022-09-29 14:59:00,,0830.8,5.01,0.00,30.5,29.3,00.0,39.2,32.3,16.5,0000.0,0008.45,0004.06,0003.53
